Time,TemperatureF,DewpointF,PressureIn,WindDirection,WindDirectionDegrees,WindSpeedMPH,WindSpeedGustMPH,Humidity,HourlyPrecipIn,Conditions,Clouds,dailyrainin,SoftwareType,DateUTC
2014-09-22 00:02:00,57.9,55.0,29.64,WSW,257,1.0,13.0,89,0.00,,,0.00,weatherlink.com 1.10,2014-09-22 04:02:00,
2014-09-22 00:17:00,57.7,55.0,29.64,West,263,5.0,13.0,90,0.00,,,0.00,weatherlink.com 1.10,2014-09-22 04:17:00,
2014-09-22 00:32:00,57.6,55.0,29.64,West,276,3.0,11.0,91,0.00,,,0.00,weatherlink.com 1.10,2014-09-22 04:32:00,
2014-09-22 00:47:00,57.2,55.0,29.65,SW,216,0.0,8.0,91,0.00,,,0.00,weatherlink.com 1.10,2014-09-22 04:47:00,
2014-09-22 01:02:00,57.0,55.0,29.65,WNW,283,4.0,7.0,91,0.00,,,0.00,weatherlink.com 1.10,2014-09-22 05:02:00,
2014-09-22 01:17:00,54.2,52.0,29.65,WSW,257,7.0,20.0,91,0.00,,,0.00,weatherlink.com 1.10,2014-09-22 05:17:00,
2014-09-22 01:32:00,50.4,49.0,29.66,NW,326,7.0,16.0,94,0.00,,,0.00,weatherlink.com 1.10,2014-09-22 05:32:00,
2014-09-22 01:47:00,48.9,47.0,29.67,WNW,292,7.0,14.0,94,0.00,,,0.00,weatherlink.com 1.10,2014-09-22 05:47:00,
2014-09-22 02:02:00,48.1,47.0,29.68,NW,307,6.0,14.0,95,0.00,,,0.00,weatherlink.com 1.10,2014-09-22 06:02:00,
2014-09-22 02:17:00,47.7,46.0,29.68,NW,309,6.0,14.0,95,0.00,,,0.00,weatherlink.com 1.10,2014-09-22 06:17:00,
2014-09-22 02:32:00,47.6,47.0,29.69,NW,315,7.0,10.0,96,0.00,,,0.00,weatherlink.com 1.10,2014-09-22 06:32:00,
2014-09-22 02:47:00,47.5,47.0,29.70,WNW,301,3.0,12.0,96,0.00,,,0.00,weatherlink.com 1.10,2014-09-22 06:47:00,
2014-09-22 03:02:00,47.0,46.0,29.70,NW,307,3.0,16.0,95,0.00,,,0.00,weatherlink.com 1.10,2014-09-22 07:02:00,
2014-09-22 03:17:00,45.9,45.0,29.71,WNW,301,7.0,13.0,95,0.00,,,0.00,weatherlink.com 1.10,2014-09-22 07:17:00,
2014-09-22 03:32:00,45.4,44.0,29.71,NW,314,15.0,15.0,95,0.00,,,0.00,weatherlink.com 1.10,2014-09-22 07:32:00,
2014-09-22 03:48:00,45.2,44.0,29.73,WNW,295,5.0,14.0,96,0.01,,,0.01,weatherlink.com 1.10,2014-09-22 07:48:00,
2014-09-22 04:03:00,44.9,44.0,29.73,WNW,298,6.0,15.0,95,0.02,,,0.02,weatherlink.com 1.10,2014-09-22 08:03:00,
2014-09-22 04:18:00,44.7,43.0,29.74,NW,311,7.0,14.0,95,0.02,,,0.02,weatherlink.com 1.10,2014-09-22 08:18:00,
2014-09-22 04:33:00,45.0,44.0,29.75,WNW,301,3.0,15.0,95,0.02,,,0.02,weatherlink.com 1.10,2014-09-22 08:33:00,
2014-09-22 04:48:00,-999.0,-99.9,29.76,North,-999,-999.0,-999.0,-999,0.01,,,0.02,weatherlink.com 1.10,2014-09-22 08:48:00,
2014-09-22 05:03:00,-999.0,-99.9,29.77,North,-999,-999.0,-999.0,-999,0.00,,,0.02,weatherlink.com 1.10,2014-09-22 09:03:00,
2014-09-22 05:18:00,-999.0,-99.9,29.78,North,-999,-999.0,-999.0,-999,0.00,,,0.02,weatherlink.com 1.10,2014-09-22 09:18:00,
2014-09-22 05:33:00,-999.0,-99.9,29.79,North,-999,-999.0,-999.0,-999,0.00,,,0.02,weatherlink.com 1.10,2014-09-22 09:33:00,
2014-09-22 05:48:00,-999.0,-99.9,29.80,North,-999,-999.0,-999.0,-999,0.00,,,0.02,weatherlink.com 1.10,2014-09-22 09:48:00,
2014-09-22 06:03:00,-999.0,-99.9,29.80,North,-999,-999.0,-999.0,-999,0.00,,,0.02,weatherlink.com 1.10,2014-09-22 10:03:00,
2014-09-22 06:18:00,-999.0,-99.9,29.82,North,-999,-999.0,-999.0,-999,0.00,,,0.02,weatherlink.com 1.10,2014-09-22 10:18:00,
2014-09-22 06:33:00,-999.0,-99.9,29.84,North,-999,-999.0,-999.0,-999,0.00,,,0.02,weatherlink.com 1.10,2014-09-22 10:33:00,
2014-09-22 06:48:00,-999.0,-99.9,29.84,North,-999,-999.0,-999.0,-999,0.00,,,0.02,weatherlink.com 1.10,2014-09-22 10:48:00,
2014-09-22 07:03:00,-999.0,-99.9,29.85,North,-999,-999.0,-999.0,-999,0.00,,,0.02,weatherlink.com 1.10,2014-09-22 11:03:00,
2014-09-22 07:19:00,-999.0,-99.9,29.86,North,-999,-999.0,-999.0,-999,0.00,,,0.02,weatherlink.com 1.10,2014-09-22 11:19:00,
2014-09-22 07:34:00,-999.0,-99.9,29.86,North,-999,-999.0,-999.0,-999,0.00,,,0.02,weatherlink.com 1.10,2014-09-22 11:34:00,
2014-09-22 07:49:00,43.1,42.0,29.87,WNW,301,1.0,14.0,95,0.01,,,0.03,weatherlink.com 1.10,2014-09-22 11:49:00,
2014-09-22 08:04:00,43.3,42.0,29.88,WNW,300,5.0,9.0,95,0.01,,,0.03,weatherlink.com 1.10,2014-09-22 12:04:00,
2014-09-22 08:19:00,43.3,42.0,29.89,NNW,345,3.0,17.0,95,0.01,,,0.03,weatherlink.com 1.10,2014-09-22 12:19:00,
2014-09-22 08:34:00,43.1,42.0,29.89,WNW,301,3.0,17.0,95,0.01,,,0.03,weatherlink.com 1.10,2014-09-22 12:34:00,
2014-09-22 08:49:00,43.2,42.0,29.90,WNW,295,5.0,16.0,95,0.00,,,0.03,weatherlink.com 1.10,2014-09-22 12:49:00,
2014-09-22 09:04:00,43.1,42.0,29.91,NW,316,9.0,13.0,95,0.00,,,0.03,weatherlink.com 1.10,2014-09-22 13:04:00,
2014-09-22 09:19:00,43.3,42.0,29.91,NW,326,4.0,11.0,95,0.00,,,0.03,weatherlink.com 1.10,2014-09-22 13:19:00,
2014-09-22 09:34:00,43.5,42.0,29.93,West,277,6.0,9.0,95,0.00,,,0.03,weatherlink.com 1.10,2014-09-22 13:34:00,
2014-09-22 09:49:00,43.8,43.0,29.93,NNW,332,9.0,9.0,95,0.01,,,0.04,weatherlink.com 1.10,2014-09-22 13:49:00,
2014-09-22 10:04:00,43.3,42.0,29.94,West,260,7.0,12.0,95,0.01,,,0.04,weatherlink.com 1.10,2014-09-22 14:04:00,
2014-09-22 10:19:00,42.9,41.0,29.95,West,281,6.0,15.0,94,0.02,,,0.05,weatherlink.com 1.10,2014-09-22 14:19:00,
2014-09-22 10:34:00,42.7,41.0,29.96,SW,224,4.0,9.0,94,0.02,,,0.05,weatherlink.com 1.10,2014-09-22 14:34:00,
2014-09-22 10:49:00,42.4,41.0,29.97,WNW,292,2.0,18.0,94,0.01,,,0.05,weatherlink.com 1.10,2014-09-22 14:49:00,
2014-09-22 11:04:00,42.5,41.0,29.98,NW,307,3.0,12.0,94,0.01,,,0.05,weatherlink.com 1.10,2014-09-22 15:04:00,
2014-09-22 11:19:00,42.8,41.0,29.98,NW,323,1.0,10.0,94,0.00,,,0.05,weatherlink.com 1.10,2014-09-22 15:19:00,
2014-09-22 11:34:00,42.9,41.0,29.99,SE,129,0.0,15.0,92,0.00,,,0.05,weatherlink.com 1.10,2014-09-22 15:34:00,
2014-09-22 11:49:00,43.1,41.0,30.00,North,352,3.0,9.0,93,0.00,,,0.05,weatherlink.com 1.10,2014-09-22 15:49:00,
2014-09-22 12:04:00,43.4,41.0,30.00,North,354,2.0,9.0,92,0.00,,,0.05,weatherlink.com 1.10,2014-09-22 16:04:00,
2014-09-22 12:19:00,43.8,42.0,30.00,North,1,4.0,11.0,92,0.00,,,0.05,weatherlink.com 1.10,2014-09-22 16:19:00,
2014-09-22 12:34:00,43.7,41.0,30.01,WNW,298,1.0,6.0,91,0.00,,,0.05,weatherlink.com 1.10,2014-09-22 16:34:00,
2014-09-22 13:05:00,44.2,41.0,30.02,NW,324,1.0,15.0,89,0.00,,,0.05,weatherlink.com 1.10,2014-09-22 17:05:00,
2014-09-22 13:20:00,44.9,42.0,30.02,North,8,1.0,6.0,88,0.00,,,0.05,weatherlink.com 1.10,2014-09-22 17:20:00,
2014-09-22 13:35:00,45.4,42.0,30.02,SW,219,4.0,8.0,88,0.00,,,0.05,weatherlink.com 1.10,2014-09-22 17:35:00,
2014-09-22 13:50:00,46.7,42.0,30.03,West,262,2.0,7.0,84,0.00,,,0.05,weatherlink.com 1.10,2014-09-22 17:50:00,
2014-09-22 14:05:00,46.9,42.0,30.04,WNW,295,2.0,10.0,82,0.00,,,0.05,weatherlink.com 1.10,2014-09-22 18:05:00,
2014-09-22 14:20:00,46.6,42.0,30.04,NW,324,0.0,14.0,83,0.00,,,0.05,weatherlink.com 1.10,2014-09-22 18:20:00,
2014-09-22 14:35:00,46.9,41.0,30.04,West,269,7.0,11.0,81,0.00,,,0.05,weatherlink.com 1.10,2014-09-22 18:35:00,
2014-09-22 14:50:00,47.3,41.0,30.05,West,280,4.0,17.0,79,0.00,,,0.05,weatherlink.com 1.10,2014-09-22 18:50:00,